"Pseudo-MPEC" for C4LVMJ2

Created 2021 Jan 15 0:07:06 UT using Find_Orb

Click here for an explanation of pseudo-MPECs

 
 Astrometry: 
     C4LVMJ2 HC2021 01 13.13368602 49 23.34 -03 09 55.5    ~1D3q 20.80GVNEOCPG96
     C4LVMJ2 HC2021 01 13.13884502 49 27.49 -03 05 31.1    ~1D3q 20.30GVNEOCPG96
     C4LVMJ2 HC2021 01 13.14400902 49 31.70 -03 01 01.1    ~1D3q 20.10GVNEOCPG96
     C4LVMJ2 HC2021 01 13.14917502 49 35.96 -02 56 29.2    ~1D3q 20.20GVNEOCPG96
     C4LVMJ2 KC2021 01 13.18109002 50 02.00 -02 28 42.0    ~1D4q 20.10GVNEOCPI52
     C4LVMJ2 KC2021 01 13.18203102 50 02.79 -02 27 52.7    ~1D4q 19.94GVNEOCPI52
     C4LVMJ2 KC2021 01 13.18297402 50 03.54 -02 27 03.4    ~1D4q 19.07GVNEOCPI52
     C4LVMJ2 KC2021 01 13.18391602 50 04.32 -02 26 15.4    ~1D4q       VNEOCPI52
     C4LVMJ2 KC2021 01 13.24459802 50 54.72 -01 33 30.9    ~1D67 20.59GVNEOCPI52
     C4LVMJ2 KC2021 01 13.24554002 50 55.51 -01 32 42.0    ~1D67 19.70GVNEOCPI52
     C4LVMJ2 KC2021 01 13.24648802 50 56.30 -01 31 53.1    ~1D67       VNEOCPI52
     C4LVMJ2 KC2021 01 13.24838 02 50 57.98 -01 30 12.0    ~1D6M 19.5 RoNEOCP291
     C4LVMJ2 KC2021 01 13.24986 02 50 59.24 -01 28 55.3    ~1D6M 20.0 RoNEOCP291
     C4LVMJ2 KC2021 01 13.25138 02 51 00.51 -01 27 36.1    ~1D6M 19.9 RoNEOCP291
     C4LVMJ2 KC2021 01 13qZtoUP$sr69O8HuWAstrometrye#37kPredacted;[TnBD/mX^=3104
     C4LVMJ2 KC2021 01 13hAa`WjojEZ/=]vU(Mj\uclick,X@pLx.ifv0M7A''k)Kjc[-!W)^104
     C4LVMJ2 KC2021 01 13af4mDT=J,%9L#y9yZtjE4'ZA\l^f*ERlPLd!3in_EL98Ksfo7f)s104
     C4LVMJ2 KC2021 01 13FJUlbAwaM;.XBL3Uo':;SS-X'tM`Vk`[GSwB*9JE!(AM;vBvk7*DL01
     C4LVMJ2 KC2021 01 13Eb%sjD3Fis[6L33VL]VM?QTZ(P0shnqg1w`!us!dl]Usph)v%9#DL01
     C4LVMJ2 KC2021 01 13EWXM-hFO7qHnVICOJ.vacI1+,-00TEg2rOTr$kium8Q['ACW(,:kL01
     C4LVMJ2 KC2021 01 13f!!f2/eSu7\P/;uS6ihereEg_HJYc0_WXWFDA2RI4F3Ovf?ee-$kL01
     C4LVMJ2 KC2021 01 13/_oiHZ(%6.7mU6hAh+DQW,'wKFb2K.v0#eX7G7MV(uecfor`,n*cK63
     C4LVMJ2 KC2021 01 13I'9NNVaSexplanationd7cAuYI2,Yn'x3k^s9C\m__uR4#.OVrf?K63
     C4LVMJ2 KC2021 01 13nB:'k3%toWa:p[-9q!RWv*kS9t/e`(3(v:MV(R*wdlkZ'xMRy%/OK63
     C4LVMJ2 KC2021 01 14.08659303 03 38.94 +10 08 07.9    ~1E2b 19.87GVNEOCPI52
     C4LVMJ2 KC2021 01 14.08885603 03 40.69 +10 09 55.1    ~1E2b 19.30GVNEOCPI52
     C4LVMJ2 KC2021 01 14.09111603 03 42.35 +10 11 42.1    ~1E2b 19.57GVNEOCPI52
     C4LVMJ2 KC2021 01 14.09338103 03 44.10 +10 13 29.4    ~1E2b 19.45GVNEOCPI52

Station data:
(104) San Marcello Pistoiese  (N44.063037 E10.804200)  Italy. 0.40-m f/5
   reflector.
(291) LPL/Spacewatch II  (N31.961669 W111.599905)  US/Arizona.  Observers J.
   V. Scotti, R. S. McMillan. 1.8-m f/2.7 reflector + CCD.
(G96) Mt. Lemmon Survey  (N32.442754 W110.788720)  US/Arizona.  Observers T.
   A. Pruyne, B. M. Africano, E. J. Christensen, G. A. Farneth, D. C. Fuls,
   A. R. Gibbs, A. D. Grauer, H. Gröller, J. A. Johnson, R. A. Kowalski, S.
   M. Larson, G. J. Leonard, D. Rankin, R. L. Seaman, F. C. Shelly. 1.5-m
   reflector + 10K CCD.
(I52) Steward Observatory, Mt. Lemmon Station  (N32.442547 W110.788920)
   US/Arizona.  Observers T. A. Pruyne, B. M. Africano, E. J. Christensen, G.
   A. Farneth, D. C. Fuls, A. R. Gibbs, A. D. Grauer, H. Gröller, J. A.
   Johnson, R. A. Kowalski, S. M. Larson, G. J. Leonard, D. Rankin, R. L.
   Seaman, F. C. Shelly. 1.0-m reflector + CCD.
(K63) G. Pascoli Observatory, Castelvecchio Pascoli  (N44.082410 E10.462000)
   Italy.
(L01) Višnjan Observatory, Tičan  (N45.290900 E13.749300)  Croatia.
   Observers K. Korlević, E. Pettarin. Measurer E. Pettarin. 1.0-m f/2.9
   reflector + CCD.

Orbital elements:  C4LVMJ2
   Perihelion 2020 Nov 4.894416 +/- 0.0767642 TT = 21:27:57 (JD 2459158.394416)
Epoch 2021 Jan 14.0 TT = JDT 2459228.5   Earth MOID: 0.0117   AutoNEOCP
M  64.42031192 +/- 0.1272925        (J2000 ecliptic)
n   0.91890414 +/- 0.000810696      Peri.  267.36888 +/- 0.0789715
a   1.04782617 +/- 0.000616279      Node   112.83951 +/- 0.0034168
e   0.2410685 +/- 0.000529221       Incl.   19.57407 +/- 0.0411808
P   1.07/391.76d           H 25.5   G  0.15   U  8.0  
q 0.79522826 +/- 0.000184625    Q 1.30042408 +/- 0.00130374
From 28 observations 2021 Jan. 13-14 (23.0 hr); mean residual 0".78
Residuals in arcseconds: 
210113 G96  .14+  4.3+    210113 I52  .24+  .64-    210113 L01  .20-  1.0+    
210113 G96  .58-  1.3-    210113 291  .06+  .08-    210113 K63  1.3-  .72-    
210113 G96  .49-  1.4-    210113 291  .27+  .37-    210113 K63  .20-  .70-    
210113 G96  .30+  .32+    210113 291  .11+  .23-    210113 K63  .31-  1.2-    
210113 I52  .20-  .38-    210113 104  .17+  .12-    210114 I52  .14+  .02+    
210113 I52  .08+  .22-    210113 104  .65+  .20+    210114 I52  .61+  .02+    
210113 I52  .27-  .16-    210113 104  .27+  .36+    210114 I52  .19-  .01+    
210113 I52  .17-  1.3-    210113 L01  .64+  .72+    210114 I52  .29+  .11+    
210113 I52  .40+  .11-    210113 L01  .21-  .32+    
210113 I52  .36+  .22-    210113 L01  .15-  1.0+    

Ephemerides (geocentric):
Date (UTC) HH   RA              Dec         delta   r     elong  mag " sig PA
---- -- -- --  -------------   -----------  ------ ------ -----  --- ---- ---
2021 01 15 00  03 16 17.702   +21 10 42.18  .03271 0.9992 117.5 20.2 .841  40
2021 01 15 01  03 16 51.286   +21 37 52.27  .03287 0.9993 117.7 20.3 .895  39
2021 01 15 02  03 17 24.767   +22 04 46.41  .03303 0.9995 117.9 20.3 .949  39
2021 01 15 03  03 17 58.147   +22 31 24.59  .03319 0.9997 118.0 20.3 1.00  38
2021 01 15 04  03 18 31.425   +22 57 46.85  .03335 0.9999 118.2 20.3 1.06  37
2021 01 15 05  03 19 04.601   +23 23 53.19  .03352 1.0000 118.4 20.3 1.11  37
2021 01 15 06  03 19 37.676   +23 49 43.67  .03369 1.0002 118.6 20.3 1.17  36
2021 01 15 07  03 20 10.650   +24 15 18.32  .03386 1.0004 118.7 20.3 1.23  36
2021 01 15 08  03 20 43.524   +24 40 37.19  .03403 1.0006 118.9 20.3 1.28  35
2021 01 15 09  03 21 16.297   +25 05 40.33  .03420 1.0007 119.1 20.3 1.34  35
2021 01 15 10  03 21 48.970   +25 30 27.81  .03438 1.0009 119.2 20.3 1.40  34
2021 01 15 11  03 22 21.543   +25 54 59.69  .03455 1.0011 119.4 20.3 1.45  34
2021 01 15 12  03 22 54.016   +26 19 16.04  .03473 1.0012 119.5 20.3 1.51  34
2021 01 15 13  03 23 26.390   +26 43 16.94  .03491 1.0014 119.7 20.3 1.57  33
2021 01 15 14  03 23 58.664   +27 07 02.47  .03510 1.0016 119.8 20.3 1.62  33
2021 01 15 15  03 24 30.840   +27 30 32.73  .03528 1.0018 120.0 20.3 1.68  33
2021 01 15 16  03 25 02.917   +27 53 47.79  .03547 1.0019 120.1 20.3 1.74  33
2021 01 15 17  03 25 34.895   +28 16 47.76  .03566 1.0021 120.2 20.4 1.80  32
2021 01 15 18  03 26 06.775   +28 39 32.75  .03585 1.0023 120.4 20.4 1.85  32
2021 01 15 19  03 26 38.558   +29 02 02.84  .03604 1.0025 120.5 20.4 1.91  32
2021 01 15 20  03 27 10.243   +29 24 18.15  .03623 1.0026 120.6 20.4 1.97  32
2021 01 15 21  03 27 41.830   +29 46 18.79  .03643 1.0028 120.8 20.4 2.02  32
2021 01 15 22  03 28 13.320   +30 08 04.87  .03662 1.0030 120.9 20.4 2.08  31
2021 01 15 23  03 28 44.714   +30 29 36.50  .03682 1.0032 121.0 20.4 2.14  31
2021 01 16 00  03 29 16.011   +30 50 53.82  .03702 1.0033 121.1 20.4 2.19  31
2021 01 16 01  03 29 47.211   +31 11 56.92  .03722 1.0035 121.2 20.4 2.25  31
2021 01 16 02  03 30 18.316   +31 32 45.95  .03742 1.0037 121.3 20.4 2.30  31
2021 01 16 03  03 30 49.325   +31 53 21.02  .03763 1.0039 121.4 20.4 2.36  31
2021 01 16 04  03 31 20.239   +32 13 42.27  .03783 1.0040 121.5 20.4 2.41  31
2021 01 16 05  03 31 51.057   +32 33 49.81  .03804 1.0042 121.6 20.5 2.47  30
2021 01 16 06  03 32 21.781   +32 53 43.77  .03825 1.0044 121.7 20.5 2.52  30
2021 01 16 07  03 32 52.410   +33 13 24.30  .03846 1.0045 121.8 20.5 2.58  30
2021 01 16 08  03 33 22.944   +33 32 51.52  .03867 1.0047 121.9 20.5 2.63  30
2021 01 16 09  03 33 53.385   +33 52 05.56  .03888 1.0049 122.0 20.5 2.68  30
2021 01 16 10  03 34 23.732   +34 11 06.55  .03910 1.0051 122.1 20.5 2.74  30
2021 01 16 11  03 34 53.985   +34 29 54.64  .03931 1.0052 122.2 20.5 2.79  30
2021 01 16 12  03 35 24.146   +34 48 29.95  .03953 1.0054 122.3 20.5 2.84  30
2021 01 16 13  03 35 54.213   +35 06 52.62  .03975 1.0056 122.4 20.5 2.89  30
2021 01 16 14  03 36 24.188   +35 25 02.79  .03997 1.0058 122.5 20.5 2.94  30
2021 01 16 15  03 36 54.071   +35 43 00.59  .04019 1.0059 122.5 20.6 3.00  30
2021 01 16 16  03 37 23.861   +36 00 46.16  .04041 1.0061 122.6 20.6 3.05  30
2021 01 16 17  03 37 53.560   +36 18 19.63  .04063 1.0063 122.7 20.6 3.10  30
2021 01 16 18  03 38 23.168   +36 35 41.13  .04086 1.0065 122.8 20.6 3.15  30
2021 01 16 19  03 38 52.684   +36 52 50.81  .04108 1.0066 122.8 20.6 3.20  30
2021 01 16 20  03 39 22.110   +37 09 48.80  .04131 1.0068 122.9 20.6 3.24  30
2021 01 16 21  03 39 51.445   +37 26 35.23  .04154 1.0070 123.0 20.6 3.29  30
2021 01 16 22  03 40 20.690   +37 43 10.24  .04176 1.0071 123.1 20.6 3.34  30
2021 01 16 23  03 40 49.845   +37 59 33.96  .04199 1.0073 123.1 20.6 3.39  30